DAL962 KBNA-KJFK

Flight info

Callsign DAL962
Flight time 1h 54m
Altitude 37000
Route TAZMO4 BURME VXV IDDAA Q64 SAWED Q108 SIE CAMRN5
Aircraft B738/M-SDE2E3FGHIRWXY/LB1

Departure

Time 2026-05-04 14:05
Airport Nashville International Airport (KBNA)

Arrival

Time 2026-05-04 16:00
Airport John F. Kennedy International Airport (KJFK)
Time Latitude Longitude Altitude Speed Heading
2026-05-04 13:50 36.12889 -86.67136 607 ft 0 kts 85°
2026-05-04 13:57 36.12889 -86.67144 606 ft 2 kts 85°
2026-05-04 13:58 36.12893 -86.67198 606 ft 2 kts 132°
2026-05-04 13:58 36.12919 -86.67210 606 ft 2 kts 195°
2026-05-04 13:58 36.12928 -86.67206 606 ft 0 kts 214°
2026-05-04 13:59 36.12933 -86.67200 606 ft 0 kts 216°
2026-05-04 14:00 36.12854 -86.67273 606 ft 11 kts 220°
2026-05-04 14:00 36.12818 -86.67314 606 ft 0 kts 223°
2026-05-04 14:02 36.12816 -86.67316 606 ft 2 kts 223°
2026-05-04 14:02 36.12756 -86.67384 606 ft 16 kts 223°
2026-05-04 14:02 36.12669 -86.67462 606 ft 14 kts 208°
2026-05-04 14:02 36.12568 -86.67545 606 ft 23 kts 222°
2026-05-04 14:03 36.12456 -86.67663 606 ft 19 kts 206°
2026-05-04 14:03 36.12365 -86.67720 606 ft 11 kts 241°
2026-05-04 14:03 36.12373 -86.67816 606 ft 12 kts 288°
2026-05-04 14:03 36.12381 -86.67846 606 ft 0 kts 288°
2026-05-04 14:04 36.12397 -86.67907 606 ft 11 kts 288°
2026-05-04 14:04 36.12368 -86.67981 606 ft 10 kts 202°
2026-05-04 14:04 36.12235 -86.68035 606 ft 47 kts 197°
2026-05-04 14:05 36.10670 -86.68663 648 ft 175 kts 198°
2026-05-04 14:05 36.09561 -86.69146 1602 ft 165 kts 203°
2026-05-04 14:05 36.08506 -86.69479 2421 ft 166 kts 189°
2026-05-04 14:06 36.07292 -86.69221 2809 ft 192 kts 164°
2026-05-04 14:06 36.06031 -86.68463 3249 ft 208 kts 160°
2026-05-04 14:06 36.04673 -86.67654 3639 ft 227 kts 161°
2026-05-04 14:06 36.03195 -86.66828 4153 ft 241 kts 161°
2026-05-04 14:07 36.01631 -86.65966 4727 ft 254 kts 161°
2026-05-04 14:07 35.99997 -86.64972 5288 ft 270 kts 152°
2026-05-04 14:07 35.98589 -86.63375 6007 ft 283 kts 126°
2026-05-04 14:07 35.97834 -86.61105 6665 ft 292 kts 101°
2026-05-04 14:08 35.97671 -86.58601 6954 ft 295 kts 92°
2026-05-04 14:08 35.97642 -86.56081 6972 ft 293 kts 91°
2026-05-04 14:08 35.97626 -86.53594 6978 ft 291 kts 91°
2026-05-04 14:08 35.97592 -86.51088 6975 ft 293 kts 92°
2026-05-04 14:09 35.97669 -86.46089 6989 ft 299 kts 80°
2026-05-04 14:09 35.98183 -86.43562 7699 ft 303 kts 73°
2026-05-04 14:10 35.99495 -86.38677 9366 ft 305 kts 72°
2026-05-04 14:10 36.00153 -86.36172 10091 ft 309 kts 73°
2026-05-04 14:10 36.00796 -86.33626 10556 ft 322 kts 73°
2026-05-04 14:10 36.01459 -86.30933 10978 ft 336 kts 73°
2026-05-04 14:11 36.02145 -86.28121 11364 ft 352 kts 73°
2026-05-04 14:11 36.03608 -86.22115 12251 ft 377 kts 73°
2026-05-04 14:11 36.04372 -86.18973 12867 ft 383 kts 73°
2026-05-04 14:12 36.05132 -86.15853 13538 ft 387 kts 73°
2026-05-04 14:12 36.05904 -86.12665 14228 ft 391 kts 73°
2026-05-04 14:12 36.06897 -86.05994 15512 ft 401 kts 86°
2026-05-04 14:13 36.06901 -86.02551 16110 ft 407 kts 91°
2026-05-04 14:13 36.06727 -85.99055 16710 ft 412 kts 93°
2026-05-04 14:13 36.06464 -85.95528 17287 ft 417 kts 94°
2026-05-04 14:13 36.06170 -85.91977 17857 ft 421 kts 94°
2026-05-04 14:14 36.05868 -85.88337 18464 ft 425 kts 94°
2026-05-04 14:14 36.05293 -85.81019 19577 ft 433 kts 93°
2026-05-04 14:14 36.05020 -85.77356 20131 ft 437 kts 93°
2026-05-04 14:15 36.04483 -85.69804 21153 ft 446 kts 92°
2026-05-04 14:15 36.03950 -85.62172 22180 ft 453 kts 92°
2026-05-04 14:16 36.03400 -85.54366 23182 ft 460 kts 92°
2026-05-04 14:16 36.03118 -85.50399 23632 ft 465 kts 92°
2026-05-04 14:17 36.02546 -85.42411 24532 ft 472 kts 93°
2026-05-04 14:17 36.02253 -85.38378 24995 ft 475 kts 93°
2026-05-04 14:17 36.01658 -85.30231 25882 ft 481 kts 94°
2026-05-04 14:18 36.01355 -85.26123 26277 ft 485 kts 94°
2026-05-04 14:18 36.00739 -85.17815 27053 ft 491 kts 94°
2026-05-04 14:19 36.00109 -85.09404 27835 ft 496 kts 94°
2026-05-04 14:19 35.99789 -85.05165 28198 ft 500 kts 94°
2026-05-04 14:19 35.99465 -85.00890 28621 ft 501 kts 94°
2026-05-04 14:19 35.99139 -84.96612 28940 ft 505 kts 94°
2026-05-04 14:20 35.98812 -84.92340 29305 ft 507 kts 94°
2026-05-04 14:20 35.98479 -84.88019 29632 ft 510 kts 94°
2026-05-04 14:20 35.98143 -84.83666 29967 ft 512 kts 94°
2026-05-04 14:21 35.97458 -84.74873 30653 ft 517 kts 94°
2026-05-04 14:21 35.97113 -84.70464 31133 ft 516 kts 94°
2026-05-04 14:21 35.96770 -84.66102 31538 ft 516 kts 94°
2026-05-04 14:21 35.96419 -84.61653 31931 ft 516 kts 94°
2026-05-04 14:22 35.96073 -84.57295 32377 ft 515 kts 94°
2026-05-04 14:22 35.95722 -84.52898 32738 ft 516 kts 94°
2026-05-04 14:22 35.95373 -84.48542 33113 ft 516 kts 94°
2026-05-04 14:22 35.95017 -84.44112 33497 ft 515 kts 94°
2026-05-04 14:23 35.94306 -84.35333 34174 ft 516 kts 94°
2026-05-04 14:23 35.93952 -84.30994 34482 ft 516 kts 94°
2026-05-04 14:23 35.93592 -84.26599 34775 ft 515 kts 94°
2026-05-04 14:24 35.93231 -84.22200 35030 ft 515 kts 95°
2026-05-04 14:24 35.92870 -84.17830 35365 ft 513 kts 95°
2026-05-04 14:24 35.92508 -84.13474 35653 ft 512 kts 95°
2026-05-04 14:24 35.92147 -84.09146 35868 ft 513 kts 94°
2026-05-04 14:25 35.91778 -84.04736 36104 ft 512 kts 95°
2026-05-04 14:25 35.91048 -83.96101 36627 ft 511 kts 95°
2026-05-04 14:25 35.90680 -83.91758 36904 ft 511 kts 95°
2026-05-04 14:26 35.90236 -83.87415 37113 ft 512 kts 97°
2026-05-04 14:26 35.89635 -83.83079 37107 ft 514 kts 100°
2026-05-04 14:26 35.88181 -83.74493 37102 ft 510 kts 102°
2026-05-04 14:27 35.86650 -83.65998 37105 ft 511 kts 102°
2026-05-04 14:27 35.85137 -83.57492 37108 ft 510 kts 101°
2026-05-04 14:28 35.83651 -83.48961 37107 ft 509 kts 101°
2026-05-04 14:28 35.82185 -83.40443 37105 ft 509 kts 101°
2026-05-04 14:29 35.79266 -83.23467 37107 ft 508 kts 101°
2026-05-04 14:30 35.77800 -83.14988 37103 ft 509 kts 102°
2026-05-04 14:31 35.75591 -83.02307 37105 ft 507 kts 102°
2026-05-04 14:32 35.72620 -82.85377 37104 ft 508 kts 102°
2026-05-04 14:32 35.71124 -82.76908 37106 ft 508 kts 102°
2026-05-04 14:33 35.69620 -82.68430 37110 ft 508 kts 101°
2026-05-04 14:33 35.68111 -82.59946 37114 ft 508 kts 102°
2026-05-04 14:34 35.66606 -82.51530 37109 ft 509 kts 102°
2026-05-04 14:34 35.65083 -82.43059 37110 ft 508 kts 102°
2026-05-04 14:35 35.63562 -82.34639 37113 ft 507 kts 103°
2026-05-04 14:35 35.62029 -82.26174 37119 ft 507 kts 102°
2026-05-04 14:36 35.60492 -82.17726 37121 ft 508 kts 102°
2026-05-04 14:36 35.58963 -82.09354 37106 ft 507 kts 102°
2026-05-04 14:37 35.57408 -82.00882 37100 ft 508 kts 103°
2026-05-04 14:37 35.55861 -81.92490 37099 ft 507 kts 102°
2026-05-04 14:38 35.54302 -81.84063 37100 ft 508 kts 102°
2026-05-04 14:38 35.52729 -81.75600 37095 ft 508 kts 103°
2026-05-04 14:39 35.51157 -81.67178 37099 ft 509 kts 103°
2026-05-04 14:39 35.49575 -81.58737 37095 ft 509 kts 103°
2026-05-04 14:40 35.47193 -81.46081 37092 ft 510 kts 103°
2026-05-04 14:40 35.45600 -81.37666 37094 ft 509 kts 103°
2026-05-04 14:41 35.43995 -81.29217 37094 ft 509 kts 103°
2026-05-04 14:42 35.40773 -81.12376 37106 ft 508 kts 103°
2026-05-04 14:42 35.39160 -81.03990 37104 ft 509 kts 103°
2026-05-04 14:43 35.37531 -80.95558 37104 ft 509 kts 103°
2026-05-04 14:43 35.35897 -80.87141 37101 ft 509 kts 103°
2026-05-04 14:44 35.34260 -80.78727 37102 ft 510 kts 103°
2026-05-04 14:44 35.32618 -80.70320 37108 ft 510 kts 104°
2026-05-04 14:45 35.30959 -80.61858 37110 ft 509 kts 103°
2026-05-04 14:45 35.29307 -80.53477 37104 ft 511 kts 103°
2026-05-04 14:46 35.27647 -80.45084 37101 ft 510 kts 103°
2026-05-04 14:46 35.25972 -80.36649 37097 ft 510 kts 103°
2026-05-04 14:47 35.24301 -80.28272 37097 ft 510 kts 104°
2026-05-04 14:47 35.22617 -80.19856 37102 ft 511 kts 104°
2026-05-04 14:48 35.20925 -80.11432 37098 ft 510 kts 104°
2026-05-04 14:48 35.19823 -80.02933 37103 ft 509 kts 88°
2026-05-04 14:49 35.20773 -79.94454 37100 ft 506 kts 72°
2026-05-04 14:49 35.22922 -79.86290 37098 ft 502 kts 65°
2026-05-04 14:50 35.25650 -79.78404 37099 ft 500 kts 61°
2026-05-04 14:50 35.28527 -79.70658 37099 ft 501 kts 61°
2026-05-04 14:51 35.31375 -79.62929 37099 ft 501 kts 61°
2026-05-04 14:51 35.34204 -79.55084 37104 ft 502 kts 62°
2026-05-04 14:52 35.36995 -79.47244 37101 ft 503 kts 62°
2026-05-04 14:52 35.39752 -79.39436 37101 ft 503 kts 62°
2026-05-04 14:53 35.42517 -79.31574 37102 ft 502 kts 63°
2026-05-04 14:53 35.45284 -79.23682 37099 ft 503 kts 63°
2026-05-04 14:54 35.48023 -79.15850 37104 ft 503 kts 63°
2026-05-04 14:54 35.50777 -79.07961 37103 ft 504 kts 63°
2026-05-04 14:55 35.53518 -79.00092 37098 ft 504 kts 63°
2026-05-04 14:55 35.56255 -78.92214 37098 ft 503 kts 63°
2026-05-04 14:56 35.58995 -78.84312 37100 ft 505 kts 63°
2026-05-04 14:56 35.61760 -78.76320 37095 ft 507 kts 63°
2026-05-04 14:57 35.64486 -78.68400 37099 ft 505 kts 63°
2026-05-04 14:57 35.67204 -78.60484 37094 ft 506 kts 63°
2026-05-04 14:58 35.69932 -78.52521 37100 ft 507 kts 63°
2026-05-04 14:58 35.72648 -78.44572 37098 ft 506 kts 63°
2026-05-04 14:59 35.75382 -78.36549 37097 ft 507 kts 62°
2026-05-04 15:00 35.79452 -78.24589 37092 ft 507 kts 63°
2026-05-04 15:00 35.82155 -78.16621 37063 ft 507 kts 63°
2026-05-04 15:01 35.86225 -78.04581 37093 ft 509 kts 63°
2026-05-04 15:01 35.88920 -77.96577 37093 ft 508 kts 63°
2026-05-04 15:02 35.91612 -77.88554 37084 ft 509 kts 63°
2026-05-04 15:02 35.94306 -77.80512 37095 ft 511 kts 63°
2026-05-04 15:03 35.97285 -77.72606 37090 ft 505 kts 55°
2026-05-04 15:03 36.01283 -77.65569 37093 ft 499 kts 45°
2026-05-04 15:04 36.05803 -77.59183 37080 ft 494 kts 41°
2026-05-04 15:04 36.10487 -77.52981 37092 ft 494 kts 40°
2026-05-04 15:05 36.15197 -77.46784 37080 ft 495 kts 40°
2026-05-04 15:05 36.19877 -77.40558 37084 ft 493 kts 41°
2026-05-04 15:06 36.24500 -77.34351 37080 ft 494 kts 41°
2026-05-04 15:07 36.31499 -77.24957 37095 ft 493 kts 40°
2026-05-04 15:07 36.36415 -77.19126 37071 ft 488 kts 36°
2026-05-04 15:08 36.41460 -77.13542 37073 ft 486 kts 35°
2026-05-04 15:08 36.46502 -77.08004 37055 ft 486 kts 35°
2026-05-04 15:09 36.51546 -77.02414 37068 ft 486 kts 36°
2026-05-04 15:09 36.56578 -76.96792 37063 ft 488 kts 36°
2026-05-04 15:10 36.64077 -76.88342 37074 ft 485 kts 36°
2026-05-04 15:11 36.71554 -76.79890 37068 ft 485 kts 37°
2026-05-04 15:11 36.76549 -76.74232 37063 ft 485 kts 36°
2026-05-04 15:12 36.81528 -76.68580 37069 ft 487 kts 37°
2026-05-04 15:12 36.86514 -76.62907 37072 ft 487 kts 37°
2026-05-04 15:13 36.91507 -76.57216 37067 ft 484 kts 37°
2026-05-04 15:13 36.96481 -76.51540 37067 ft 485 kts 37°
2026-05-04 15:14 37.01461 -76.45843 37063 ft 485 kts 37°
2026-05-04 15:14 37.06439 -76.40142 37066 ft 485 kts 37°
2026-05-04 15:15 37.11383 -76.34465 37067 ft 487 kts 38°
2026-05-04 15:15 37.16380 -76.28717 37063 ft 486 kts 38°
2026-05-04 15:16 37.23816 -76.20148 37066 ft 488 kts 38°
2026-05-04 15:17 37.31303 -76.11493 37050 ft 488 kts 38°
2026-05-04 15:17 37.38770 -76.02835 37052 ft 488 kts 38°
2026-05-04 15:18 37.43736 -75.97063 37049 ft 488 kts 38°
2026-05-04 15:19 37.51256 -75.88360 37055 ft 488 kts 37°
2026-05-04 15:19 37.59424 -75.80937 37055 ft 480 kts 25°
2026-05-04 15:20 37.65165 -75.76701 37064 ft 479 kts 24°
2026-05-04 15:20 37.70943 -75.72516 37062 ft 479 kts 24°
2026-05-04 15:21 37.76682 -75.68293 37051 ft 479 kts 25°
2026-05-04 15:22 37.85287 -75.61840 37054 ft 480 kts 26°
2026-05-04 15:22 37.93610 -75.54775 37050 ft 482 kts 29°
2026-05-04 15:23 37.99100 -75.49875 37058 ft 483 kts 30°
2026-05-04 15:23 38.04584 -75.44997 37056 ft 483 kts 29°
2026-05-04 15:24 38.15712 -75.35693 37057 ft 478 kts 27°
2026-05-04 15:25 38.21350 -75.31200 37053 ft 478 kts 25°
2026-05-04 15:26 38.30465 -75.26795 37058 ft 462 kts
2026-05-04 15:26 38.39926 -75.24779 37055 ft 460 kts
2026-05-04 15:27 38.49426 -75.22951 37050 ft 460 kts
2026-05-04 15:28 38.58911 -75.21022 37045 ft 461 kts
2026-05-04 15:29 38.68356 -75.18723 37045 ft 467 kts 12°
2026-05-04 15:30 38.79652 -75.09957 37036 ft 483 kts 33°
2026-05-04 15:30 38.87550 -75.02000 37035 ft 483 kts 33°
2026-05-04 15:31 38.95504 -74.94016 37036 ft 483 kts 33°
2026-05-04 15:32 39.03399 -74.86168 35844 ft 477 kts 33°
2026-05-04 15:32 39.08669 -74.80950 34393 ft 485 kts 32°
2026-05-04 15:33 39.13991 -74.75500 33285 ft 480 kts 35°
2026-05-04 15:34 39.21438 -74.67368 31851 ft 470 kts 36°
2026-05-04 15:34 39.23912 -74.64655 31172 ft 471 kts 35°
2026-05-04 15:34 39.28923 -74.59177 29663 ft 471 kts 35°
2026-05-04 15:35 39.33899 -74.53749 27989 ft 472 kts 36°
2026-05-04 15:35 39.36391 -74.51035 27069 ft 474 kts 36°
2026-05-04 15:35 39.38934 -74.48265 26122 ft 476 kts 36°
2026-05-04 15:36 39.43974 -74.42767 24574 ft 470 kts 36°
2026-05-04 15:36 39.46450 -74.40058 23923 ft 464 kts 36°
2026-05-04 15:36 39.48893 -74.37385 23227 ft 460 kts 36°
2026-05-04 15:37 39.51307 -74.34740 22535 ft 456 kts 37°
2026-05-04 15:37 39.53718 -74.32098 21758 ft 454 kts 36°
2026-05-04 15:37 39.56111 -74.29474 21088 ft 449 kts 37°
2026-05-04 15:37 39.58472 -74.26884 20428 ft 445 kts 37°
2026-05-04 15:38 39.60811 -74.24315 19684 ft 443 kts 37°
2026-05-04 15:38 39.63139 -74.21757 18985 ft 439 kts 37°
2026-05-04 15:38 39.65442 -74.19223 18326 ft 435 kts 36°
2026-05-04 15:38 39.67741 -74.16690 17818 ft 430 kts 36°
2026-05-04 15:39 39.70013 -74.14185 17226 ft 430 kts 37°
2026-05-04 15:39 39.72275 -74.11690 16581 ft 426 kts 36°
2026-05-04 15:39 39.76728 -74.06770 15300 ft 418 kts 37°
2026-05-04 15:40 39.78944 -74.04317 14642 ft 415 kts 37°
2026-05-04 15:40 39.81115 -74.01918 13987 ft 411 kts 36°
2026-05-04 15:40 39.83314 -73.99604 13334 ft 407 kts 33°
2026-05-04 15:40 39.85629 -73.97512 12677 ft 402 kts 28°
2026-05-04 15:41 39.88009 -73.95661 12157 ft 394 kts 26°
2026-05-04 15:41 39.90353 -73.93986 11875 ft 381 kts 24°
2026-05-04 15:41 39.92636 -73.92412 11722 ft 365 kts 24°
2026-05-04 15:41 39.94861 -73.90890 11561 ft 351 kts 24°
2026-05-04 15:42 39.96983 -73.89428 11412 ft 338 kts 24°
2026-05-04 15:42 39.98995 -73.88026 11254 ft 327 kts 24°
2026-05-04 15:42 40.00982 -73.86624 11091 ft 316 kts 25°
2026-05-04 15:42 40.02814 -73.85098 10973 ft 308 kts 31°
2026-05-04 15:43 40.04510 -73.83456 10973 ft 304 kts 33°
2026-05-04 15:43 40.06173 -73.81768 10960 ft 307 kts 33°
2026-05-04 15:43 40.07856 -73.80047 10964 ft 306 kts 33°
2026-05-04 15:43 40.09541 -73.78334 10964 ft 306 kts 33°
2026-05-04 15:44 40.11219 -73.76641 10969 ft 306 kts 33°
2026-05-04 15:44 40.12931 -73.74925 10982 ft 306 kts 33°
2026-05-04 15:44 40.14617 -73.73237 10968 ft 306 kts 33°
2026-05-04 15:44 40.16288 -73.71563 10970 ft 307 kts 33°
2026-05-04 15:45 40.17984 -73.69864 10964 ft 307 kts 33°
2026-05-04 15:45 40.19687 -73.68156 10972 ft 308 kts 33°
2026-05-04 15:45 40.21366 -73.66470 10964 ft 306 kts 33°
2026-05-04 15:45 40.23071 -73.64755 10973 ft 307 kts 33°
2026-05-04 15:46 40.24754 -73.63063 10975 ft 307 kts 33°
2026-05-04 15:46 40.26438 -73.61367 10960 ft 306 kts 33°
2026-05-04 15:46 40.28125 -73.59668 10965 ft 306 kts 33°
2026-05-04 15:46 40.29831 -73.57950 10963 ft 308 kts 33°
2026-05-04 15:47 40.31517 -73.56261 10968 ft 307 kts 31°
2026-05-04 15:47 40.33337 -73.54823 10951 ft 301 kts 17°
2026-05-04 15:47 40.35316 -73.54075 10959 ft 296 kts
2026-05-04 15:47 40.37339 -73.53653 10970 ft 295 kts
2026-05-04 15:48 40.39382 -73.53279 10944 ft 295 kts
2026-05-04 15:48 40.41413 -73.52866 10956 ft 296 kts
2026-05-04 15:48 40.45444 -73.51923 10942 ft 296 kts
2026-05-04 15:49 40.47464 -73.51425 10937 ft 295 kts
2026-05-04 15:49 40.49505 -73.50922 10878 ft 297 kts
2026-05-04 15:49 40.51534 -73.50425 10426 ft 301 kts
2026-05-04 15:49 40.53610 -73.49916 10045 ft 299 kts
2026-05-04 15:50 40.55615 -73.49421 9851 ft 291 kts
2026-05-04 15:50 40.57607 -73.48930 9445 ft 291 kts
2026-05-04 15:50 40.59597 -73.48444 9082 ft 290 kts
2026-05-04 15:50 40.61562 -73.47963 8722 ft 289 kts
2026-05-04 15:51 40.63544 -73.47477 8356 ft 287 kts
2026-05-04 15:51 40.65482 -73.47001 8001 ft 286 kts
2026-05-04 15:51 40.67440 -73.46515 7642 ft 285 kts
2026-05-04 15:51 40.69364 -73.45770 7271 ft 288 kts 17°
2026-05-04 15:52 40.71177 -73.44705 6916 ft 289 kts 22°
2026-05-04 15:52 40.72977 -73.43514 6551 ft 282 kts 22°
2026-05-04 15:52 40.74744 -73.42600 6216 ft 267 kts
2026-05-04 15:52 40.76474 -73.42771 5961 ft 240 kts 330°
2026-05-04 15:53 40.77832 -73.43908 5762 ft 226 kts 310°
2026-05-04 15:53 40.78819 -73.45470 5491 ft 219 kts 298°
2026-05-04 15:53 40.79619 -73.47162 5279 ft 215 kts 296°
2026-05-04 15:53 40.80378 -73.48825 5077 ft 214 kts 296°
2026-05-04 15:54 40.81147 -73.50504 4869 ft 215 kts 296°
2026-05-04 15:54 40.81886 -73.52209 4658 ft 212 kts 289°
2026-05-04 15:54 40.82202 -73.54075 4458 ft 206 kts 262°
2026-05-04 15:54 40.81826 -73.55864 4286 ft 205 kts 248°
2026-05-04 15:55 40.81296 -73.57622 4066 ft 205 kts 249°
2026-05-04 15:55 40.80813 -73.59374 3867 ft 202 kts 250°
2026-05-04 15:55 40.80354 -73.61134 3675 ft 203 kts 250°
2026-05-04 15:55 40.79853 -73.62854 3519 ft 201 kts 240°
2026-05-04 15:56 40.78910 -73.64237 3348 ft 207 kts 218°
2026-05-04 15:56 40.77686 -73.65246 3021 ft 211 kts 213°
2026-05-04 15:56 40.76440 -73.66176 2743 ft 199 kts 213°
2026-05-04 15:56 40.75297 -73.67069 2477 ft 185 kts 215°
2026-05-04 15:57 40.74246 -73.67903 2226 ft 170 kts 214°
2026-05-04 15:57 40.73261 -73.68670 2000 ft 159 kts 214°
2026-05-04 15:57 40.72329 -73.69399 1803 ft 153 kts 214°
2026-05-04 15:57 40.71423 -73.70112 1634 ft 148 kts 214°
2026-05-04 15:58 40.70515 -73.70822 1403 ft 154 kts 213°
2026-05-04 15:58 40.69595 -73.71538 1187 ft 152 kts 213°
2026-05-04 15:58 40.68704 -73.72229 966 ft 148 kts 213°
2026-05-04 15:58 40.67828 -73.72916 771 ft 143 kts 213°
2026-05-04 15:59 40.66988 -73.73563 602 ft 142 kts 212°
2026-05-04 15:59 40.66119 -73.74242 457 ft 145 kts 212°
2026-05-04 15:59 40.65255 -73.74906 240 ft 145 kts 212°
2026-05-04 15:59 40.64394 -73.75584 39 ft 141 kts 212°
2026-05-04 16:00 40.63644 -73.76174 15 ft 92 kts 211°
2026-05-04 16:00 40.63352 -73.76414 15 ft 32 kts 219°
2026-05-04 16:00 40.63242 -73.76637 13 ft 20 kts 254°
2026-05-04 16:00 40.63281 -73.76812 12 ft 20 kts 301°
2026-05-04 16:01 40.63354 -73.76975 12 ft 22 kts 300°
2026-05-04 16:01 40.63434 -73.77148 14 ft 21 kts 300°
2026-05-04 16:01 40.63511 -73.77320 15 ft 24 kts 300°
2026-05-04 16:01 40.63597 -73.77509 15 ft 23 kts 301°